Regional Weather Roundup
Issued by NWS

Home | Current Version | Previous Version | Graphics & Text | Print | Product List | Glossary On
Versions: 1 2 3 4 5 6 7 8 9 10 11 12 13 14 15 16 17 18 19 20 21 22 23 24 25 26 27 28 29 30 31 32 33 34 35 36 37 38 39 40 41 42 43 44 45 46 47 48 49 50
000
ASUS43 KMKX 201221
RWRWI

WISCONSIN REGIONAL WEATHER ROUNDUP
NATIONAL WEATHER SERVICE MILWAUKEE/SULLIVAN WI
700 AM CDT WED AUG 20 2014

NOTE: "FAIR" INDICATES FEW OR NO CLOUDS BELOW 12,000 FEET WITH NO
SIGNIFICANT WEATHER AND/OR OBSTRUCTIONS TO VISIBILITY.

WIZ001-002-006>008-014>016-023>028-201300-
NORTHWEST WISCONSIN

CITY           SKY/WX    TMP DP  RH WIND       PRES   REMARKS
SUPERIOR ARPT  CLOUDY    61  60  96 CALM      29.87R
6HR MIN TEMP:  60; 6HR MAX TEMP:  61;

ASHLAND        CLOUDY    60  58  92 SW3       29.88R
6HR MIN TEMP:  59; 6HR MAX TEMP:  60;

HAYWARD        CLOUDY    60  59  96 CALM      29.88R
6HR MIN TEMP:  59; 6HR MAX TEMP:  60;

SIREN          FOG       60  60  98 CALM      29.86S VSB 1/4
6HR MIN TEMP:  55; 6HR MAX TEMP:  62;

RICE LAKE      FOG       59  58  96 N3        29.88R VSB 1/4
6HR MIN TEMP:  60; 6HR MAX TEMP:  62; 6HR PCP:  0.01;

LADYSMITH      CLOUDY    61  59  94 N3        29.88F
6HR MIN TEMP:  59; 6HR MAX TEMP:  61;

EAU CLAIRE     CLOUDY    61  61 100 NE7       29.84R FOG
6HR MIN TEMP:  58; 6HR MAX TEMP:  65;

MENOMONIE      PTSUNNY   62  61  97 N5        29.85S
6HR MIN TEMP:  62; 6HR MAX TEMP:  65;

NEW RICHMOND   CLEAR     58  58 100 NE3       29.85S FOG
6HR MIN TEMP:  57; 6HR MAX TEMP:  62;

OSCEOLA        FOG       59  59 100 CALM      29.87S VSB 3/4
6HR MIN TEMP:  58; 6HR MAX TEMP:  63;

$$

WIZ003>005-009-010-017-018-201300-
NORTH CENTRAL WISCONSIN

CITY           SKY/WX    TMP DP  RH WIND       PRES   REMARKS
WOODRUFF       CLOUDY    59  57  92 N3        29.87R
6HR MIN TEMP:  59; 6HR MAX TEMP:  60;

RHINELANDER    CLOUDY    59  58  96 CALM      29.87R
6HR MIN TEMP:  59; 6HR MAX TEMP:  61;

EAGLE RIVER    CLOUDY    57  57 100 NW3       29.86R
6HR MIN TEMP:  56; 6HR MAX TEMP:  59;

LAND O LAKES   CLOUDY    57  57  99 N3        29.87R FOG
6HR MIN TEMP:  56; 6HR MAX TEMP:  59;

PHILLIPS       CLOUDY    58  57  98 CALM      29.87S
6HR MIN TEMP:  58; 6HR MAX TEMP:  59;

TOMAHAWK       CLOUDY    58  57  96 CALM      29.88R FOG
6HR MIN TEMP:  53; 6HR MAX TEMP:  58;

MEDFORD        CLOUDY    58  58  98 N6        29.87S
6HR MIN TEMP:  57; 6HR MAX TEMP:  59;

MERRILL        CLOUDY    59  59 100 CALM      29.86R FOG
6HR MIN TEMP:  57; 6HR MAX TEMP:  60;

$$

WIZ029-030-035-036-043>047-201300-
CENTRAL WISCONSIN

CITY           SKY/WX    TMP DP  RH WIND       PRES   REMARKS
WAUSAU         CLOUDY    60  58  92 NW7       29.85R
6HR MIN TEMP:  60; 6HR MAX TEMP:  62;

MOSINEE        CLOUDY    57  57 100 N9        29.86S FOG
MARSHFIELD     FOG       60  59  96 NE7       29.84S VSB 1/4
6HR MIN TEMP:  58; 6HR MAX TEMP:  63;

STEVENS POINT  PTCLDY    58  58  99 N6        29.84F
6HR MIN TEMP:  56; 6HR MAX TEMP:  59; 6HR PCP:  0.01;

WAUPACA        CLEAR     64  63  94 CALM      29.82F
6HR MIN TEMP:  61; 6HR MAX TEMP:  65;

WAUTOMA        FOG       62  62 100 CALM      29.83S VSB<1/4
6HR MIN TEMP:  58; 6HR MAX TEMP:  62;

WISC RAPIDS    CLEAR     61  60  97 CALM      29.84F
6HR MIN TEMP:  57; 6HR MAX TEMP:  61;

CAMP DOUGLAS   FOG       57  57 100 W2        29.84R VSB 1
6HR MIN TEMP:  53; 6HR MAX TEMP:  59;

$$

WIZ011>013-019>022-031-037>040-048>050-201300-
NORTHEAST WISCONSIN

CITY           SKY/WX    TMP DP  RH WIND       PRES   REMARKS
ANTIGO         CLOUDY    58  58  99 NW8       29.86R FOG
6HR MIN TEMP:  58; 6HR MAX TEMP:  59;

STURGEON BAY   CLOUDY    63  59  88 NW8       29.82S
6HR MIN TEMP:  61; 6HR MAX TEMP:  64;

GREEN BAY      MOCLDY    61  61 100 CALM      29.82R
6HR MIN TEMP:  60; 6HR MAX TEMP:  63;

MANITOWOC      CLEAR     63  61  93 W3        29.82R
6HR MIN TEMP:  61; 6HR MAX TEMP:  65;

APPLETON       PTCLDY    59  59 100 W6        29.82S
CLINTONVILLE   CLEAR     63  59  88 NW6       29.83S
OSHKOSH        CLEAR     62  61  96 NW6       29.82S
6HR MIN TEMP:  62; 6HR MAX TEMP:  65;

$$

WIZ032>034-041-042-053>061-201300-
SOUTHWEST WISCONSIN

CITY           SKY/WX    TMP DP  RH WIND       PRES   REMARKS
LA CROSSE      MOCLDY    65  62  90 CALM      29.83R
6HR MIN TEMP:  63; 6HR MAX TEMP:  68;

SPARTA         FOG       59  58  97 CALM      29.84S VSB<1/4
6HR MIN TEMP:  56; 6HR MAX TEMP:  60;

VIROQUA        FAIR      61  61 100 CALM      29.85R
6HR MIN TEMP:  59; 6HR MAX TEMP:  64;

BOSCOBEL       FOG       63  62  97 CALM      29.84R VSB<1/4
6HR MIN TEMP:  61; 6HR MAX TEMP:  66;

PRAIRIE DU CHI CLOUDY    62  60  94 CALM      29.84R FOG
6HR MIN TEMP:  62; 6HR MAX TEMP:  66;

PLATTEVILLE    FAIR      63  61  95 S3        29.86R
6HR MIN TEMP:  61; 6HR MAX TEMP:  66;

$$

WIZ056-057-062-063-064-067-068-201300-
SOUTH CENTRAL WISCONSIN

CITY           SKY/WX    TMP DP  RH WIND       PRES   REMARKS
BARABOO/DELLS  CLEAR     61  59  94 CALM      29.83R
6HR MIN TEMP:  59; 6HR MAX TEMP:  63;

LONE ROCK      FOG       64  61  90 CALM      29.84R VSB 1/4
6HR MIN TEMP:  63; 6HR MAX TEMP:  66;

WATERTOWN      CLEAR     62  61  99 CALM      29.83R
6HR MIN TEMP:  59; 6HR MAX TEMP:  64;

MADISON        PTCLDY    63  61  93 CALM      29.83R
6HR MIN TEMP:  61; 6HR MAX TEMP:  67;

MIDDLETON        N/A     60  60 100 CALM      29.84R
6HR MIN TEMP:  60; 6HR MAX TEMP:  64;

MONROE         CLEAR     64  63  94 SW5       29.84S
JANESVILLE     PTCLDY    63  61  94 CALM      29.84R
$$

WIZ051-052-058>065-066-070>072-201300-
SOUTHEAST WISCONSIN

CITY           SKY/WX    TMP DP  RH WIND       PRES   REMARKS
MILWAUKEE      CLEAR     67  62  84 W5        29.83R
6HR MIN TEMP:  66; 6HR MAX TEMP:  69;

WAUKESHA       CLEAR     61  59  94 NW5       29.84R
MILWAUKEE/TIMM CLEAR     64  61  88 CALM      29.83S
RACINE         CLEAR     66  62  87 CALM      29.84R
6HR MIN TEMP:  65; 6HR MAX TEMP:  68;

BURLINGTON     CLEAR     60  60 100 SW5       29.84R FOG
6HR MIN TEMP:  58; 6HR MAX TEMP:  62;

KENOSHA        CLEAR     63  62  97 SW5       29.84R
6HR MIN TEMP:  61; 6HR MAX TEMP:  66;

FOND DU LAC    CLEAR     62  60  93 CALM      29.82S
6HR MIN TEMP:  61; 6HR MAX TEMP:  64;

SHEBOYGAN      FOG       62  61  96 CALM      29.82S VSB 1/4
6HR MIN TEMP:  60; 6HR MAX TEMP:  64;

WEST BEND      CLEAR     61  59  94 CALM      29.82S
JUNEAU         CLEAR     61  36  39 CALM      29.84S
6HR MIN TEMP:  60; 6HR MAX TEMP:  64;

$$

LSZ147-162-201300-
LAKE SUPERIOR

STATION/POSITION TIME  TEMP    WIND        PRES    WAVE
                       AIR SEA DIR/SP/G            HT/PER
                 (UTC) (F)     (DEG/KT/KT) (MB)    (FT/S)
W MID LAKE BUOY  1150   59 58  270/  6/  6 1010.4R   1
DEVILS ISLAND    1200   60     250/  8/  9 1011.2R
PORT WING        1100   60     180/  2/  3 1011.2
SAXON HARBOR     1100   59        CALM     1010.8S
$$

LMZ867-665-643>646-201300-
LAKE MICHIGAN

STATION/POSITION TIME  TEMP    WIND        PRES    WAVE
                       AIR SEA DIR/SP/G            HT/PER
                 (UTC) (F)     (DEG/KT/KT) (MB)    (FT/S)
N MID LAKE BUOY  1150   60 62  310/ 10/ 10 1008.4R   1/ 3
NORTHPORT PIER   1100   63     330/  9/ 11 1009.1R
SISTER BAY       1126   62     340/ 10/ 10   N/A
KEWAUNEE LAKESHO 1100   62     300/  2/  3 1008.3R
SHEBOYGAN LAKESH 1200   65 65  310/  5/  6 1009.7F
ATWATER BUOY     1200   67     280/  4     1011.1R
MILWAUKEE LAKESH 1200   68     290/  4/  6   N/A
S MID LAKE BUOY  1150   67 66  270/  4/  6 1009.9R   1
KENOSHA   LAKESH 1200   69     260/  6/  8 1010.2R
$$

TC  - TEMPERATURE IN CELSIUS
VSB - VISIBILITY IN STATUTE MILES
WCI - WIND CHILL INDEX
HX  - HEAT INDEX




USA.gov is the U.S. government's official web portal to all federal, state and local government web resources and services.